[[{"header":{"parameterUnit":"m.s-1","parameterCategory":1,"la1":30.2991,"la2":30.254,"lo1":-89.0895,"lo2":-89.0444,"dy":0.0017,"dx":0.0017,"nx":28,"ny":28,"refTime":"2024-12-16T03:00:00:Z","depth":0,"parameterNumber":2,"parameterNumberName":"U-component_of_WINDS"},"data":[0,0,0,0,0,0,0,0,0,0,0,0,0,0,0,0,0,0,0,0,0,0,0,0,0,0,0,0,0,0,0,0,0,0,0,0,0,0,0,0,0,0,0,0,0,0,0,0,0,0,0,0,0,0,0,0,0,0,-1.9316,-1.9316,0,-1.9287,-1.9286,-1.9286,-1.9219,-1.9218,-1.9216,-1.9215,-1.9184,-1.9185,-1.9185,0,0,0,0,0,0,0,0,0,0,0,0,0,-1.9316,-1.9316,-1.9316,-1.9316,-1.9315,-1.9287,-1.9286,-1.9286,-1.9219,-1.9218,-1.9216,-1.9214,-1.9184,-1.9185,-1.9185,0,0,0,0,0,0,0,0,0,0,0,0,0,-1.9304,-1.9316,-1.9316,-1.9279,-1.9275,-1.9287,-1.9286,-1.9286,-1.922,-1.9218,-1.9216,-1.9214,-1.9184,-1.9185,-1.9186,-1.9231,0,0,-1.9188,-1.9188,0,0,0,0,0,0,0,0,-1.9305,-1.9304,-1.9285,-1.9281,-1.9277,-1.9254,-1.9275,-1.9267,-1.922,-1.9241,-1.9215,-1.9213,-1.9209,-1.9208,-1.9207,-1.923,-1.9228,-1.9188,-1.9188,-1.9188,-1.9189,0,0,0,0,0,0,0,-1.9306,-1.9305,-1.9304,-1.9284,-1.928,-1.9264,-1.926,-1.9273,-1.9237,-1.9239,-1.9234,-1.9231,-1.9207,-1.9206,-1.9206,-1.9228,-1.9188,-1.9188,-1.9189,-1.9189,-1.9288,-1.929,0,0,0,0,0,0,-1.9312,-1.9306,-1.9305,-1.9303,-1.9286,-1.9265,-1.9261,-1.9264,-1.9237,-1.923,-1.9233,-1.9228,-1.9206,-1.9205,-1.9204,-1.9257,-1.9188,-1.9189,-1.9189,-1.9286,-1.9288,-1.9291,0,0,0,0,0,0,-1.9312,-1.9312,-1.9306,-1.9303,-1.9301,-1.9268,-1.9271,-1.9264,-1.9263,-1.9232,-1.9226,-1.9239,-1.9204,-1.9203,-1.9225,-1.9255,-1.9189,-1.919,-1.9283,-1.9287,-1.929,-1.9361,0,0,0,0,0,0,-1.9312,-1.9313,-1.933,-1.9304,-1.9302,-1.9328,-1.9273,-1.9265,-1.9265,-1.9258,-1.9236,-1.923,-1.9203,-1.9225,-1.9226,-1.9254,-1.9191,-1.928,-1.9285,-1.9289,-1.9356,-1.9367,-1.9376,0,0,0,0,0,-1.9313,-1.935,-1.9331,-1.9331,-1.9322,-1.933,-1.9328,-1.9296,-1.9268,-1.9284,-1.9265,-1.9231,-1.9251,-1.9227,-1.9228,-1.9257,-1.9278,-1.9283,-1.9288,-1.9352,-1.9364,-1.9375,0,0,0,0,0,0,-1.9379,-1.9346,-1.9324,-1.9355,-1.9346,-1.9318,-1.9338,-1.931,-1.9308,-1.9302,-1.9262,-1.9258,-1.9285,-1.9273,-1.9247,-1.9301,-1.9259,-1.9265,-1.9307,-1.9319,-1.9329,-1.9331,-1.9191,0,0,0,0,0,-1.9398,-1.9407,-1.9377,-1.9407,-1.9404,-1.9372,-1.9374,-1.935,-1.9339,-1.9335,-1.9316,-1.9307,-1.9311,-1.9314,-1.9316,-1.9354,-1.9349,-1.9375,-1.9385,-1.9393,-1.9398,-1.9418,-1.943,-1.9307,-1.9307,-1.9307,0,0,-1.9435,-1.9419,-1.9427,-1.942,-1.941,-1.9421,-1.9369,-1.9382,-1.939,-1.9336,-1.9356,-1.9343,-1.9329,-1.936,-1.9372,-1.9351,-1.9431,-1.9399,-1.9406,-1.9406,-1.9425,-1.9436,-1.9447,-1.931,-1.931,-1.9309,0,0,-1.951,-1.9498,-1.9522,-1.9514,-1.9499,-1.9478,-1.9484,-1.9462,-1.9451,-1.947,-1.9431,-1.944,-1.9447,-1.944,-1.9437,-1.9511,-1.9481,-1.9513,-1.9564,-1.9584,-1.9594,-1.9602,-1.9629,-1.9639,-1.9518,-1.9518,-1.9519,0,-1.9558,-1.9573,-1.9538,-1.9554,-1.9553,-1.9506,-1.9531,-1.9524,-1.9511,-1.9512,-1.9488,-1.9498,-1.9486,-1.9514,-1.9533,-1.9532,-1.9538,-1.9515,-1.9595,-1.9603,-1.961,-1.9636,-1.9646,-1.9522,-1.9522,-1.9522,-1.9521,0,-1.9634,-1.9644,-1.9666,-1.9655,-1.9657,-1.9677,-1.9646,-1.9652,-1.9628,-1.961,-1.9631,-1.9615,-1.9614,-1.9619,-1.9595,-1.9645,-1.9632,-1.9602,-1.956,-1.9627,-1.965,-1.9659,-1.9528,-1.9527,-1.9526,-1.9525,0,0,-1.9748,-1.9719,-1.9728,-1.9723,-1.9705,-1.9713,-1.9732,-1.9731,-1.9737,-1.973,-1.9745,-1.9754,-1.9727,-1.9724,-1.97,-1.9718,-1.9779,-1.9686,-1.9685,-1.9704,-1.9833,-1.9856,-1.9867,-1.9759,-1.976,-1.9762,-1.9834,0,-1.9818,-1.9848,-1.9818,-1.9855,-1.9865,-1.9822,-1.9838,-1.9829,-1.9813,-1.982,-1.9802,-1.9809,-1.9772,-1.9771,-1.9786,-1.9768,-1.9804,-1.9762,-1.9773,-1.9774,-1.9778,-1.9879,-1.9903,-1.9972,-1.9843,-1.9845,-1.9846,0,-1.9903,-1.9901,-1.9939,-1.992,-1.9923,-1.9939,-1.9936,-1.9943,-1.9933,-1.992,-1.9918,-1.9889,-1.9907,-1.9866,-1.989,-1.9863,-1.9865,-1.9857,-1.9859,-1.9859,-1.9814,-1.9882,-1.9993,-2.0004,-1.986,-1.9859,-1.9858,0,-1.9983,-1.999,-2.0014,-2.0012,-1.999,-2.0002,-1.9994,-1.9981,-1.9983,-1.9981,-1.9982,-1.9983,-1.9983,-1.9984,-1.9956,-1.9929,-1.9985,-1.9941,-1.9975,-1.9976,-1.9988,-1.9988,-2.0102,-1.999,-1.999,-1.999,-1.9989,0,-2.0064,-2.0089,-2.005,-2.0065,-2.0092,-2.0058,-2.0086,-2.0073,-2.0063,-2.0075,-2.0037,-2.0049,-2.0012,-2.002,-1.9999,-2.0023,-2.0023,-2.0014,-2.0008,-2.0017,-2.0019,-2.0018,-2.0013,-1.9992,-1.9992,-1.9991,-1.9991,0,-2.0158,-2.0133,-2.0156,-2.0134,-2.013,-2.0151,-2.0132,-2.0145,-2.0127,-2.0143,-2.0145,-2.0117,-2.0125,-2.0098,-2.0101,-2.0087,-2.0123,-2.0108,-2.0126,-2.0122,-2.0157,-2.0155,-2.0275,-2.029,-2.0169,-2.017,-2.0171,0,-2.0211,-2.023,-2.0211,-2.0216,-2.021,-2.0219,-2.0222,-2.019,-2.0194,-2.0184,-2.0199,-2.0204,-2.0206,-2.0221,-2.0201,-2.0204,-2.019,-2.0232,-2.019,-2.02,-2.0191,-2.0191,-2.0193,-2.0241,-2.0242,-2.0244,-2.0245,0,-2.0309,-2.0296,-2.0301,-2.0302,-2.0306,-2.0305,-2.0302,-2.0309,-2.0275,-2.0281,-2.0289,-2.0291,-2.0296,-2.0301,-2.03,-2.0292,-2.0263,-2.0258,-2.0266,-2.0276,-2.0286,-2.0282,-2.015,-2.0255,-2.0254,-2.0253,-2.0253,-2.0252,-2.0384,-2.0399,-2.0389,-2.0396,-2.039,-2.0389,-2.04,-2.0385,-2.0391,-2.0392,-2.0373,-2.0386,-2.0376,-2.0372,-2.0367,-2.0376,-2.0357,-2.0368,-2.0371,-2.0375,-2.0381,-2.0285,-2.0376,-2.0376,-2.0375,-2.0375,-2.0375,0,-2.0481,-2.0472,-2.0479,-2.0476,-2.0483,-2.0456,-2.0451,-2.0458,-2.0469,-2.0463,-2.0467,-2.0477,-2.0483,-2.0465,-2.0468,-2.048,-2.0467,-2.0482,-2.048,-2.0479,-2.0398,-2.0391,-2.0492,-2.0492,-2.0492,-2.0492,-2.0492,-2.0492,-2.0532,-2.0556,-2.0542,-2.0564,-2.0555,-2.0567,-2.0567,-2.0566,-2.0561,-2.0574,-2.0579,-2.0568,-2.0557,-2.056,-2.0564,-2.0559,-2.0562,-2.0582,-2.0572,-2.0496,-2.0485,-2.0474,-2.0467,-2.0583,-2.0583,-2.0652,-2.0653,-2.0654]},{"header":{"parameterUnit":"m.s-1","parameterCategory":1,"la1":30.2991,"la2":30.254,"lo1":-89.0895,"lo2":-89.0444,"dy":0.0017,"dx":0.0017,"nx":28,"ny":28,"refTime":"2024-12-16T03:00:00:Z","depth":0,"parameterNumber":3,"parameterNumberName":"V-component_of_WINDS"},"data":[0,0,0,0,0,0,0,0,0,0,0,0,0,0,0,0,0,0,0,0,0,0,0,0,0,0,0,0,0,0,0,0,0,0,0,0,0,0,0,0,0,0,0,0,0,0,0,0,0,0,0,0,0,0,0,0,0,0,-0.4474,-0.4474,0,-0.4499,-0.45,-0.45,-0.4487,-0.4486,-0.4486,-0.4485,-0.4514,-0.4515,-0.4517,0,0,0,0,0,0,0,0,0,0,0,0,0,-0.4415,-0.4416,-0.4474,-0.4474,-0.4474,-0.4499,-0.45,-0.45,-0.4487,-0.4486,-0.4486,-0.4485,-0.4513,-0.4515,-0.4517,0,0,0,0,0,0,0,0,0,0,0,0,0,-0.444,-0.4416,-0.4474,-0.4471,-0.4471,-0.4499,-0.45,-0.45,-0.4487,-0.4486,-0.4485,-0.4484,-0.4513,-0.4515,-0.4517,-0.455,0,0,-0.4523,-0.4524,0,0,0,0,0,0,0,0,-0.4439,-0.4443,-0.4471,-0.4471,-0.4471,-0.4489,-0.4489,-0.4517,-0.4488,-0.4481,-0.4485,-0.4484,-0.4507,-0.4509,-0.4516,-0.4552,-0.4553,-0.4524,-0.4525,-0.4526,-0.4526,0,0,0,0,0,0,0,-0.4437,-0.4441,-0.4484,-0.4471,-0.4472,-0.4469,-0.4471,-0.4495,-0.4499,-0.4482,-0.4481,-0.4484,-0.4506,-0.4514,-0.4517,-0.4553,-0.4524,-0.4525,-0.4527,-0.4528,-0.4616,-0.4617,0,0,0,0,0,0,-0.4435,-0.444,-0.4483,-0.4485,-0.4452,-0.4471,-0.4473,-0.4484,-0.4499,-0.45,-0.4485,-0.4483,-0.4511,-0.4514,-0.4518,-0.4557,-0.4526,-0.4528,-0.4529,-0.4615,-0.4616,-0.4618,0,0,0,0,0,0,-0.4434,-0.4439,-0.4482,-0.4462,-0.4467,-0.4473,-0.4485,-0.4485,-0.4493,-0.4501,-0.4502,-0.4492,-0.4511,-0.4515,-0.4542,-0.4558,-0.4529,-0.4531,-0.4614,-0.4615,-0.4617,-0.4636,0,0,0,0,0,0,-0.4432,-0.4439,-0.4452,-0.4462,-0.4468,-0.4506,-0.4486,-0.4487,-0.4497,-0.4495,-0.4508,-0.4509,-0.451,-0.4539,-0.4544,-0.456,-0.4532,-0.4612,-0.4614,-0.4616,-0.4634,-0.4638,-0.4642,0,0,0,0,0,-0.443,-0.4457,-0.4452,-0.4458,-0.4484,-0.4507,-0.451,-0.4509,-0.4498,-0.4511,-0.4516,-0.4509,-0.4555,-0.4542,-0.4547,-0.4565,-0.4611,-0.4614,-0.4616,-0.4633,-0.4638,-0.4642,0,0,0,0,0,0,-0.4449,-0.4458,-0.4453,-0.4484,-0.4494,-0.4504,-0.4521,-0.4515,-0.453,-0.4527,-0.4527,-0.453,-0.4558,-0.4564,-0.4549,-0.4597,-0.4582,-0.4585,-0.4592,-0.4597,-0.4601,-0.4599,-0.4534,0,0,0,0,0,-0.4457,-0.4473,-0.4481,-0.4507,-0.4512,-0.4515,-0.4525,-0.4523,-0.4535,-0.4539,-0.4546,-0.4558,-0.4575,-0.4586,-0.4602,-0.4635,-0.4637,-0.4649,-0.4653,-0.4656,-0.466,-0.4676,-0.4682,-0.4626,-0.4626,-0.4626,0,0,-0.4473,-0.448,-0.4491,-0.4511,-0.4519,-0.4536,-0.4519,-0.4539,-0.4552,-0.4543,-0.4568,-0.4573,-0.4586,-0.4616,-0.4629,-0.4622,-0.4675,-0.4659,-0.4662,-0.4664,-0.4679,-0.4685,-0.4689,-0.4627,-0.4627,-0.4627,0,0,-0.4511,-0.4518,-0.454,-0.4548,-0.4559,-0.4561,-0.4566,-0.4576,-0.4579,-0.4605,-0.4597,-0.4613,-0.4642,-0.4651,-0.466,-0.4699,-0.4694,-0.4705,-0.4725,-0.4741,-0.4746,-0.4749,-0.4763,-0.4768,-0.4708,-0.4708,-0.4708,0,-0.453,-0.4556,-0.4553,-0.4572,-0.4581,-0.4572,-0.4594,-0.4602,-0.4619,-0.4625,-0.4616,-0.4652,-0.466,-0.4691,-0.47,-0.4707,-0.4713,-0.4703,-0.4745,-0.4749,-0.4752,-0.4765,-0.4771,-0.4709,-0.4709,-0.4709,-0.4709,0,-0.4578,-0.4596,-0.4612,-0.4627,-0.4638,-0.4659,-0.4659,-0.467,-0.4667,-0.4669,-0.4695,-0.4704,-0.4721,-0.4728,-0.4726,-0.4758,-0.4753,-0.4745,-0.4729,-0.4759,-0.4771,-0.4776,-0.4711,-0.471,-0.471,-0.471,0,0,-0.4631,-0.4642,-0.4648,-0.4654,-0.4665,-0.4679,-0.4699,-0.4714,-0.4723,-0.4735,-0.4752,-0.4776,-0.4767,-0.4777,-0.4775,-0.4789,-0.4819,-0.4779,-0.4779,-0.4786,-0.4855,-0.4861,-0.4867,-0.4815,-0.4816,-0.4817,-0.4854,0,-0.4669,-0.4704,-0.4701,-0.4733,-0.4749,-0.474,-0.4757,-0.4766,-0.4768,-0.4782,-0.4785,-0.4802,-0.479,-0.4795,-0.4809,-0.4813,-0.4833,-0.481,-0.4831,-0.4832,-0.4828,-0.4874,-0.4881,-0.4915,-0.4858,-0.4859,-0.486,0,-0.472,-0.4731,-0.4765,-0.4772,-0.4778,-0.4794,-0.4807,-0.4821,-0.483,-0.4831,-0.484,-0.4836,-0.4856,-0.4839,-0.4867,-0.4851,-0.486,-0.4863,-0.4864,-0.4866,-0.4848,-0.4877,-0.4927,-0.4932,-0.4867,-0.4867,-0.4866,0,-0.4754,-0.4778,-0.4801,-0.4806,-0.4815,-0.4826,-0.483,-0.4839,-0.4847,-0.4859,-0.4865,-0.4879,-0.4887,-0.4898,-0.4898,-0.4886,-0.4926,-0.4909,-0.4927,-0.4927,-0.4937,-0.4936,-0.4988,-0.4942,-0.4942,-0.4942,-0.4941,0,-0.4798,-0.4819,-0.4816,-0.483,-0.4853,-0.4849,-0.4872,-0.4876,-0.4882,-0.4897,-0.489,-0.4904,-0.4902,-0.4916,-0.4916,-0.4939,-0.4943,-0.4944,-0.4944,-0.4945,-0.4944,-0.495,-0.4948,-0.4943,-0.4943,-0.4942,-0.4942,0,-0.4841,-0.484,-0.4864,-0.4869,-0.4871,-0.4888,-0.4893,-0.4906,-0.4907,-0.4926,-0.493,-0.4932,-0.4948,-0.4948,-0.4967,-0.4967,-0.4994,-0.4991,-0.4991,-0.499,-0.5008,-0.5006,-0.5066,-0.5073,-0.5022,-0.5022,-0.5023,0,-0.4869,-0.4884,-0.4891,-0.49,-0.4904,-0.4919,-0.4927,-0.4924,-0.4933,-0.4944,-0.4956,-0.4971,-0.4982,-0.5009,-0.5012,-0.5026,-0.5023,-0.5043,-0.5026,-0.5026,-0.5024,-0.5023,-0.5024,-0.5047,-0.5048,-0.5048,-0.5048,0,-0.4919,-0.4917,-0.4929,-0.4941,-0.4951,-0.496,-0.4969,-0.4976,-0.4974,-0.4984,-0.5,-0.5009,-0.5027,-0.5042,-0.5055,-0.506,-0.5054,-0.5054,-0.5058,-0.506,-0.5059,-0.5059,-0.5,-0.5053,-0.5052,-0.5052,-0.5052,-0.5051,-0.4955,-0.4968,-0.4974,-0.4988,-0.4993,-0.5001,-0.5013,-0.5015,-0.5027,-0.5041,-0.5038,-0.5055,-0.5063,-0.508,-0.5086,-0.5099,-0.5093,-0.51,-0.5102,-0.5103,-0.5105,-0.5056,-0.5102,-0.5102,-0.5102,-0.5102,-0.5101,0,-0.5005,-0.5007,-0.502,-0.5031,-0.5041,-0.5033,-0.5041,-0.5051,-0.5066,-0.5073,-0.5084,-0.5101,-0.5115,-0.5119,-0.5132,-0.5143,-0.514,-0.5146,-0.5146,-0.5147,-0.5111,-0.5105,-0.5148,-0.5148,-0.5148,-0.5148,-0.5148,-0.5148,-0.5032,-0.5053,-0.5051,-0.5075,-0.5077,-0.5093,-0.5099,-0.5106,-0.5111,-0.513,-0.5141,-0.5143,-0.5149,-0.5162,-0.5175,-0.5175,-0.5181,-0.5188,-0.5188,-0.5154,-0.5149,-0.5145,-0.514,-0.5189,-0.5189,-0.5223,-0.5223,-0.5223]}]]